GW5559 Weather Reports


Display with metric or nautical units.
time (UTC)temp
F
wind
direction
speed
MPH
gust
MPH
rain 1hr
in
rain 24hr
in
rain mn
in
humidity
%
barometer
mb
20260504110515 46 0.0 0.0 0.00 0.00 0.00 70 1012.1
20260504100517 41 0.0 0.0 0.00 0.00 0.00 72 1011.9
20260504081517 42 250 1.0 3.0 0.00 0.00 0.00 71 1012.2
20260504080517 42 0.0 0.0 0.00 0.00 0.00 70 1012.1
20260504050517 46 248 2.0 4.0 0.00 0.00 0.00 62 1012.0
20260504045517 47 249 3.0 4.0 0.00 0.00 0.00 60 1012.0
20260504044517 47 228 3.0 4.0 0.00 0.00 0.00 61 1012.0
20260504043517 47 237 3.0 5.0 0.00 0.00 0.00 62 1011.9
20260504042517 45 249 4.0 8.0 0.00 0.00 0.00 65 1011.9
20260504041517 45 278 1.0 3.0 0.00 0.00 0.00 66 1011.9
20260504040517 45 278 1.0 2.0 0.00 0.00 0.00 65 1011.7
20260504035516 45 0.0 1.0 0.00 0.00 0.00 65 1011.6
20260504034515 45 278 0.0 1.0 0.00 0.00 0.00 65 1011.4
20260504033516 45 0.0 0.0 0.00 0.00 0.00 62 1011.3
20260504032515 47 0.0 0.0 0.00 0.00 0.00 60 1011.4
20260504031516 47 0.0 1.0 0.00 0.00 0.00 59 1011.2
20260504030515 46 278 1.0 1.0 0.00 0.00 0.00 61 1011.2
20260504025515 47 0.0 0.0 0.00 0.00 0.00 60 1011.2
20260504024516 46 278 1.0 3.0 0.00 0.00 0.00 61 1011.2
20260504023516 48 278 0.0 1.0 0.00 0.00 0.00 58 1011.2
20260504022516 49 0.0 1.0 0.00 0.00 0.00 56 1011.3
20260504021515 48 0.0 0.0 0.00 0.00 0.00 57 1011.3
20260504020515 49 0.0 0.0 0.00 0.00 0.00 55 1011.2
20260504015515 50 278 1.0 3.0 0.00 0.00 0.00 53 1011.2
20260504014516 49 278 2.0 3.0 0.00 0.00 0.00 57 1011.2
20260504013535 50 278 1.0 3.0 0.00 0.00 0.00 54 1011.1
20260504012516 51 278 1.0 2.0 0.00 0.00 0.00 50 1011.2
20260504011516 52 278 2.0 2.0 0.00 0.00 0.00 49 1011.1
20260504010515 51 278 0.0 2.0 0.00 0.00 0.00 50 1011.0
20260504005536 52 278 1.0 3.0 0.00 0.00 0.00 49 1010.9
20260504004515 53 272 2.0 6.0 0.00 0.00 0.00 48 1010.9
20260504003515 53 243 5.0 8.0 0.00 0.00 0.00 46 1010.6
20260504002535 54 248 6.0 8.0 0.00 0.00 0.00 46 1010.4
20260504001515 55 244 6.0 12.0 0.00 0.00 0.00 44 1010.3
20260504000535 55 247 7.0 13.0 0.00 0.00 0.00 42 1010.3
20260503235515 56 253 7.0 15.0 0.00 0.00 0.00 41 1010.2
20260503234516 57 249 10.0 16.0 0.00 0.00 0.00 40 1010.2
20260503233536 57 254 10.0 22.0 0.00 0.00 0.00 40 1010.0
20260503232515 58 248 12.0 19.0 0.00 0.00 0.00 40 1009.9
20260503231535 58 249 8.0 13.0 0.00 0.00 0.00 40 1009.8
20260503230515 58 247 7.0 11.0 0.00 0.00 0.00 39 1009.8
20260503225515 57 256 9.0 19.0 0.00 0.00 0.00 39 1009.9
20260503224515 59 255 11.0 16.0 0.00 0.00 0.00 39 1009.8
20260503223515 58 252 11.0 18.0 0.00 0.00 0.00 39 1009.7
20260503222536 59 267 12.0 23.0 0.00 0.00 0.00 38 1009.7
20260503221515 59 249 10.0 16.0 0.00 0.00 0.00 40 1009.7
20260503220516 58 253 15.0 25.0 0.00 0.00 0.00 38 1009.7
20260503215515 58 256 12.0 20.0 0.00 0.00 0.00 40 1009.8
20260503214515 58 267 8.0 14.0 0.00 0.00 0.00 39 1009.8
20260503213535 58 263 10.0 19.0 0.00 0.00 0.00 39 1009.7
20260503212515 57 246 13.0 20.0 0.00 0.00 0.00 39 1009.6
20260503211515 58 252 15.0 24.0 0.00 0.00 0.00 37 1009.7
20260503210515 58 238 15.0 24.0 0.00 0.00 0.00 38 1009.6
20260503205516 58 250 15.0 20.0 0.00 0.00 0.00 37 1009.6
20260503204515 58 256 9.0 21.0 0.00 0.00 0.00 36 1009.6
20260503203515 58 244 19.0 24.0 0.00 0.00 0.00 38 1009.6
20260503202515 58 245 17.0 25.0 0.00 0.00 0.00 36 1009.7
20260503201516 58 266 13.0 26.0 0.00 0.00 0.00 36 1009.8
20260503200515 57 349 8.0 19.0 0.00 0.00 0.00 36 1009.9
20260503195515 57 258 10.0 18.0 0.00 0.00 0.00 37 1010.1
20260503194535 58 249 13.0 22.0 0.00 0.00 0.00 37 1010.3
20260503193515 58 288 10.0 19.0 0.00 0.00 0.00 37 1010.4
20260503192535 56 268 10.0 27.0 0.00 0.00 0.00 38 1010.5
20260503191515 56 244 15.0 24.0 0.00 0.00 0.00 40 1010.6
20260503190515 56 247 16.0 26.0 0.00 0.00 0.00 39 1010.6
20260503185535 56 262 13.0 25.0 0.00 0.00 0.00 39 1010.8
20260503184515 56 288 12.0 28.0 0.00 0.00 0.00 41 1011.0
20260503183515 55 310 12.0 27.0 0.00 0.00 0.00 38 1011.0
20260503182536 55 285 15.0 27.0 0.00 0.00 0.00 39 1011.1
20260503181516 54 317 11.0 23.0 0.00 0.00 0.00 40 1011.1
20260503180515 54 279 13.0 28.0 0.00 0.00 0.00 41 1011.1
20260503175515 54 283 15.0 25.0 0.00 0.00 0.00 41 1011.3
20260503174535 53 288 8.0 22.0 0.00 0.00 0.00 43 1011.4
20260503173515 53 257 19.0 31.0 0.00 0.00 0.00 42 1011.4
20260503172515 52 316 6.0 17.0 0.00 0.00 0.00 42 1011.6
20260503171516 52 330 10.0 24.0 0.00 0.00 0.00 43 1011.8
20260503170535 51 265 15.0 22.0 0.00 0.00 0.00 44 1011.8
20260503150515 48 286 14.0 23.0 0.00 0.00 0.00 48 1012.3
20260503130515 44 357 7.0 13.0 0.00 0.00 0.00 63 1012.7